Location: Newark
(21.0319°N, 105.8400°E)
Time: 09:43:57
(UTC+00:00)

Hubble Space Telescope - Visible Passes

Search period start: 11 December 2019 00:00
Search period end: 21 December 2019 00:00
Orbit: 536 x 540 km, 28.5° (Epoch: 10 December)

Date Brightness Start Highest point End Pass type
(mag) Time Alt. Az. Time Alt. Az. Time Alt. Az.
11 Dec 2.6 21:35:05 21° S 21:36:38 27° SSE 21:40:09 10° E visible
12 Dec 2.0 21:25:59 36° SSE 21:26:00 36° SSE 21:29:48 10° E visible
13 Dec 2.4 21:16:43 34° ESE 21:16:43 34° ESE 21:19:22 10° E visible
13 Dec 1.1 22:52:34 10° W 22:56:34 48° NNW 23:00:35 10° ENE visible
14 Dec 3.1 21:07:17 22° E 21:07:17 22° E 21:08:51 10° ENE visible
14 Dec 1.4 22:42:39 13° W 22:46:03 41° NNW 22:49:58 10° ENE visible
15 Dec 3.7 20:57:42 14° ENE 20:57:42 14° ENE 20:58:18 10° ENE visible
15 Dec 1.6 22:33:04 19° WNW 22:35:31 36° N 22:39:21 10° ENE visible
16 Dec 1.7 22:23:22 23° NW 22:25:01 32° N 22:28:46 10° ENE visible
17 Dec 1.8 22:13:34 27° NNW 22:14:31 30° N 22:18:11 10° ENE visible
18 Dec 1.9 22:03:43 28° NNW 22:04:01 28° N 22:07:39 10° ENE visible
19 Dec 2.1 21:53:48 28° N 21:53:48 28° N 21:57:08 10° ENE visible
20 Dec 2.3 21:43:51 26° NNE 21:43:51 26° NNE 21:46:39 10° ENE visible
